Moab, UT

11:08 PM MST on November 17, 2019 (GMT -0700)
Canyonlands

Weather History for KCNY - October, 2019

Change the Weather History Date:

Sunday, October 13, 2019

  Actual Average Record
Temperature  
Mean Temperature 46 °F 55 °F  
Max Temperature 67 °F 70 °F 93 °F (1992)
Min Temperature 24 °F 40 °F 24 °F (2019)
Degree Days  
Heating Degree Days 19 10  
Month to date heating degree days 161 99  
Since 1 July heating degree days 184 157  
Cooling Degree Days 0 0  
Month to date cooling degree days 0 4  
Year to date cooling degree days 1462 1288  
Moisture  
Dew Point -5 °F    
Average Humidity 14    
Maximum Humidity 21    
Minimum Humidity 6    
Precipitation  
Precipitation 0.00 in 0.04 in 1.00 in (1941)
Month to date precipitation 0.00 0.56  
Year to date precipitation 6.24 6.90  
Sea Level Pressure  
Sea Level Pressure 30.03 in    
Wind  
Wind Speed 2 mph (SW)    
Max Wind Speed 10 mph    
Max Gust Speed 14 mph    
Visibility 10 miles    
Events      
T = Trace of Precipitation, MM = Missing Value Source: NWS Daily Summary

Daily Weather History Graph

Daily Weather History Graph

Search for Another Location

Airport or City:

Astronomy

Oct. 13, 2019 Rise Set
Actual Time 7:26 AM MDT 6:43 PM MDT
Civil Twilight 6:59 AM MDT 7:10 PM MDT
Nautical Twilight 6:28 AM MDT 7:41 PM MDT
Astronomical Twilight 5:57 AM MDT 8:11 PM MDT
Moon 7:07 PM MDT (10/13) 7:04 AM MDT (10/13)
Length of Visible Light 12h 11m
Length of Day
11h 17m
Full, 100% of the Moon is Illuminated
Oct 13
Full
Oct 13
Full
Oct 21
Last Quarter
Oct 27
New
Nov 4
First Quarter

Hourly Weather History & Observations

Time (MDT) Temp. Windchill Dew Point Humidity Pressure Visibility Wind Dir Wind Speed Gust Speed Precip Events Conditions
12:53 AM 30.0 °F - -7.1 °F 20% 30.04 in 10.0 mi Calm Calm - N/A   Clear
1:53 AM 27.0 °F - -9.9 °F 20% 30.06 in 10.0 mi Calm Calm - N/A   Clear
2:53 AM 28.0 °F 22.8 °F -7.1 °F 22% 30.07 in 10.0 mi SW 4.6 mph - N/A   Clear
3:53 AM 26.1 °F - -9.0 °F 21% 30.07 in 10.0 mi Calm Calm - N/A   Clear
4:53 AM 30.9 °F - -6.0 °F 20% 30.06 in 10.0 mi Calm Calm - N/A   Clear
5:53 AM 25.0 °F - -11.0 °F 20% 30.09 in 10.0 mi Calm Calm - N/A   Clear
6:53 AM 30.9 °F - -7.1 °F 19% 30.10 in 10.0 mi Calm Calm - N/A   Clear
7:53 AM 30.0 °F - -7.1 °F 20% 30.14 in 10.0 mi Calm Calm - N/A   Clear
8:53 AM 37.9 °F 35.5 °F -5.1 °F 16% 30.14 in 10.0 mi South 3.5 mph - N/A   Clear
9:53 AM 46.9 °F - -0.9 °F 14% 30.12 in 10.0 mi SE 9.2 mph - N/A   Clear
10:53 AM 51.1 °F - -0.0 °F 12% 30.11 in 10.0 mi SE 5.8 mph - N/A   Clear
11:53 AM 57.0 °F - -0.9 °F 9% 30.09 in 10.0 mi Calm Calm - N/A   Clear
12:53 PM 59.0 °F - -2.0 °F 8% 30.06 in 10.0 mi East 5.8 mph - N/A   Clear
1:53 PM 62.1 °F - -2.9 °F 7% 30.02 in 10.0 mi Calm Calm - N/A   Clear
2:53 PM 64.0 °F - -2.0 °F 7% 29.99 in 10.0 mi West 3.5 mph - N/A   Clear
3:53 PM 66.0 °F - -2.0 °F 7% 29.97 in 10.0 mi Calm Calm - N/A   Clear
4:53 PM 66.0 °F - -2.0 °F 7% 29.94 in 10.0 mi Variable 3.5 mph - N/A   Clear
5:53 PM 64.0 °F - -0.9 °F 7% 29.95 in 10.0 mi NNW 5.8 mph - N/A   Clear
6:53 PM 57.0 °F - -2.9 °F 9% 29.95 in 10.0 mi NW 5.8 mph - N/A   Clear
7:53 PM 50.0 °F - -5.1 °F 10% 29.97 in 10.0 mi SW 4.6 mph - N/A   Clear
8:53 PM 46.9 °F - -6.0 °F 11% 29.96 in 10.0 mi WSW 3.5 mph - N/A   Clear
9:53 PM 42.1 °F - -8.0 °F 12% 29.96 in 10.0 mi Calm Calm - N/A   Clear
10:53 PM 41.0 °F - -5.1 °F 14% 29.96 in 10.0 mi Calm Calm - N/A   Clear
11:53 PM 39.9 °F - -6.0 °F 14% 29.94 in 10.0 mi Calm Calm - N/A   Clear